Date String (YYYY-MM-DD hh:mm:ss) UTC,Instrument flags,Ambient pressure (hPa),Sample flow (lpm),Bypass flow (lpm),Sample temperature (°C),Ambient temperature (°C),ASC tube jacket temperature (°C),LED temperature (°C),Box temperature (°C),Sample RH (%),Span deviation,Mass concentration (μg/m³),Mass concentration (μg/m³),Mass concentration (μg/m³)
DateTimeUTC,F1_M11,P_M11,Q1_M11,Q2_M11,T1_M11,T2_M11,T3_M11,T4_M11,T5_M11,U1_M11,ZSPAN_M11,X0_M11,X2_M11,X1_M11
2022-08-29 08:00:00,,0825.5,4.99,0.00,30.1,27.5,00.0,38.9,31.8,18.9,0000.0,0009.16,0004.42,0003.72
2022-08-29 08:01:00,,0825.5,5.00,0.00,30.1,27.8,00.0,38.9,31.8,19.1,0000.0,0009.21,0004.42,0003.71
2022-08-29 08:02:00,,0825.6,5.00,0.00,30.1,28.0,00.0,38.9,31.8,19.5,0000.0,0009.20,0004.38,0003.73
2022-08-29 08:03:00,,0825.6,4.99,0.00,30.0,28.3,00.0,38.9,31.8,19.8,0000.0,0009.28,0004.40,0003.74
2022-08-29 08:04:00,,0825.6,5.01,0.00,30.0,28.4,00.0,38.9,31.8,20.1,0000.0,0009.81,0004.40,0003.73
2022-08-29 08:05:00,,0825.6,5.00,0.00,30.1,28.6,00.0,38.9,31.9,20.1,0000.0,0010.23,0004.38,0003.71
2022-08-29 08:06:00,,0825.6,5.00,0.00,30.1,28.7,00.0,38.9,31.9,20.3,0000.0,0009.93,0004.37,0003.72
2022-08-29 08:07:00,,0825.7,5.00,0.00,30.1,28.8,00.0,38.9,31.9,20.4,0000.0,0009.59,0004.39,0003.73
2022-08-29 08:08:00,,0825.6,5.01,0.00,30.1,28.9,00.0,38.9,31.9,20.5,0000.0,0009.61,0004.41,0003.74
2022-08-29 08:09:00,,0825.6,5.00,0.00,30.1,28.9,00.0,38.9,32.0,20.6,0000.0,0009.43,0004.39,0003.76
2022-08-29 08:10:00,,0825.6,5.00,0.00,30.1,29.0,00.0,38.9,32.0,20.7,0000.0,0009.44,0004.45,0003.80
2022-08-29 08:11:00,,0825.7,5.00,0.00,30.1,29.0,00.0,38.9,32.0,20.7,0000.0,0009.92,0004.55,0003.83
2022-08-29 08:12:00,,0825.7,4.99,0.00,30.2,29.1,00.0,38.9,32.0,20.7,0000.0,0010.09,0004.57,0003.84
2022-08-29 08:13:00,,0825.7,4.99,0.00,30.2,29.1,00.0,38.9,32.0,20.8,0000.0,0010.24,0004.63,0003.85
2022-08-29 08:14:00,,0825.7,5.00,0.00,30.2,29.2,00.0,38.9,32.1,20.9,0000.0,0010.47,0004.61,0003.86
2022-08-29 08:15:00,,0826.0,5.00,0.00,30.2,29.2,00.0,39.0,32.1,20.9,0000.0,0010.98,0004.59,0003.87
2022-08-29 08:16:00,,0825.9,5.00,0.00,30.3,29.2,00.0,39.0,32.1,20.9,0000.0,0010.76,0004.60,0003.88
2022-08-29 08:17:00,,0825.7,5.00,0.00,30.3,29.3,00.0,39.0,32.1,20.9,0000.0,0010.95,0004.59,0003.88
2022-08-29 08:18:00,,0826.0,5.00,0.00,30.3,29.3,00.0,39.0,32.2,20.9,0000.0,0011.31,0004.58,0003.89
2022-08-29 08:19:00,,0826.0,5.00,0.00,30.3,29.3,00.0,39.0,32.2,20.9,0000.0,0012.18,0004.59,0003.89
2022-08-29 08:20:00,,0825.9,4.99,0.00,30.3,28.9,00.0,39.0,32.2,20.8,0000.0,0012.97,0004.66,0003.90
2022-08-29 08:21:00,,0825.9,4.99,0.00,30.3,27.3,00.0,39.0,32.0,20.8,0000.0,0013.63,0004.74,0003.92
2022-08-29 08:22:00,,0825.9,5.01,0.00,30.2,26.2,00.0,38.9,31.8,20.9,0000.0,0013.33,0004.74,0003.94
2022-08-29 08:23:00,,0825.9,5.01,0.00,30.1,26.2,00.0,38.9,31.7,21.0,0000.0,0013.40,0004.82,0003.97
2022-08-29 08:24:00,,0825.9,5.00,0.00,30.0,26.6,00.0,38.8,31.5,21.2,0000.0,0013.43,0004.89,0004.00
2022-08-29 08:25:00,,0825.9,5.01,0.00,29.9,27.0,00.0,38.8,31.5,21.3,0000.0,0013.60,0004.92,0004.03
2022-08-29 08:26:00,,0826.0,5.00,0.00,29.9,27.3,00.0,38.8,31.5,21.4,0000.0,0012.89,0004.96,0004.05
2022-08-29 08:27:00,,0826.0,5.00,0.00,29.9,27.6,00.0,38.7,31.5,21.5,0000.0,0012.48,0005.01,0004.08
2022-08-29 08:28:00,,0826.0,4.99,0.00,29.8,27.8,00.0,38.7,31.6,21.5,0000.0,0012.87,0005.10,0004.12
2022-08-29 08:29:00,,0826.0,4.99,0.00,29.8,28.0,00.0,38.7,31.6,21.5,0000.0,0013.47,0005.13,0004.13
2022-08-29 08:30:00,,0826.0,5.01,0.00,29.8,28.2,00.0,38.7,31.6,21.5,0000.0,0013.20,0005.17,0004.14
2022-08-29 08:31:00,,0826.0,5.00,0.00,29.8,28.3,00.0,38.7,31.6,21.5,0000.0,0013.73,0005.22,0004.16
2022-08-29 08:32:00,,0826.0,5.00,0.00,29.9,28.4,00.0,38.7,31.7,21.5,0000.0,0012.96,0005.18,0004.16
2022-08-29 08:33:00,,0826.0,5.00,0.00,29.9,28.5,00.0,38.7,31.7,21.5,0000.0,0013.03,0005.18,0004.16
2022-08-29 08:34:00,,0826.0,5.00,0.00,29.9,28.6,00.0,38.7,31.7,21.5,0000.0,0012.87,0005.15,0004.15
2022-08-29 08:35:00,,0826.0,5.00,0.00,29.9,28.7,00.0,38.7,31.7,21.4,0000.0,0012.82,0005.13,0004.15
2022-08-29 08:36:00,,0826.0,4.98,0.00,29.9,28.7,00.0,38.7,31.7,21.3,0000.0,0012.50,0005.12,0004.16
2022-08-29 08:37:00,,0826.0,5.02,0.00,29.9,28.8,00.0,38.7,31.8,21.2,0000.0,0012.36,0005.11,0004.17
2022-08-29 08:38:00,,0826.2,4.99,0.00,29.9,28.8,00.0,38.7,31.8,21.1,0000.0,0012.48,0005.12,0004.18
2022-08-29 08:39:00,,0826.2,5.00,0.00,30.0,28.9,00.0,38.7,31.8,20.9,0000.0,0012.72,0005.13,0004.18
2022-08-29 08:40:00,,0826.1,4.99,0.00,30.0,28.9,00.0,38.7,31.9,20.9,0000.0,0011.80,0005.15,0004.19
2022-08-29 08:41:00,,0826.2,4.99,0.00,30.0,28.9,00.0,38.8,31.9,20.9,0000.0,0011.07,0005.10,0004.20
2022-08-29 08:42:00,,0826.2,5.01,0.00,30.0,29.0,00.0,38.8,31.9,20.7,0000.0,0009.88,0005.04,0004.21
2022-08-29 08:43:00,,0826.2,5.00,0.00,30.1,29.0,00.0,38.8,31.9,20.6,0000.0,0010.50,0005.05,0004.24
2022-08-29 08:44:00,,0826.2,5.01,0.00,30.1,29.0,00.0,38.8,32.0,20.7,0000.0,0011.86,0005.08,0004.27
2022-08-29 08:45:00,,0826.2,5.00,0.00,30.1,29.1,00.0,38.8,32.0,20.6,0000.0,0012.85,0005.10,0004.30
2022-08-29 08:46:00,,0826.2,5.00,0.00,30.1,29.1,00.0,38.8,32.0,20.6,0000.0,0013.13,0005.08,0004.31
2022-08-29 08:47:00,,0826.2,5.00,0.00,30.1,29.1,00.0,38.9,32.0,20.6,0000.0,0013.33,0005.10,0004.32
2022-08-29 08:48:00,,0826.2,5.00,0.00,30.2,29.1,00.0,38.9,32.0,20.6,0000.0,0013.54,0005.11,0004.33
2022-08-29 08:49:00,,0826.2,5.00,0.00,30.2,29.2,00.0,38.9,32.1,20.6,0000.0,0013.52,0005.11,0004.35
2022-08-29 08:50:00,,0826.3,5.00,0.00,30.2,29.2,00.0,38.9,32.1,20.6,0000.0,0013.23,0005.10,0004.35
2022-08-29 08:51:00,,0826.2,5.01,0.00,30.2,29.2,00.0,38.9,32.1,20.6,0000.0,0013.65,0005.14,0004.37
2022-08-29 08:52:00,,0826.2,5.00,0.00,30.2,29.2,00.0,39.0,32.1,20.5,0000.0,0014.19,0005.23,0004.39
2022-08-29 08:53:00,,0826.2,5.00,0.00,30.3,29.2,00.0,39.0,32.1,20.5,0000.0,0014.41,0005.28,0004.41
2022-08-29 08:54:00,,0826.2,5.00,0.00,30.3,29.2,00.0,39.0,32.1,20.5,0000.0,0014.69,0005.27,0004.41
2022-08-29 08:55:00,,0826.2,5.00,0.00,30.3,28.4,00.0,39.0,32.1,20.5,0000.0,0014.06,0005.23,0004.39
2022-08-29 08:56:00,,0826.2,5.00,0.00,30.2,27.0,00.0,38.9,31.9,20.6,0000.0,0013.06,0005.21,0004.37
2022-08-29 08:57:00,,0826.3,4.99,0.00,30.2,26.8,00.0,38.9,31.9,20.6,0000.0,0012.90,0005.21,0004.36
2022-08-29 08:58:00,,0826.2,5.01,0.00,30.1,27.0,00.0,38.8,31.6,20.8,0000.0,0012.55,0005.20,0004.35
2022-08-29 08:59:00,,0826.2,5.00,0.00,30.0,27.3,00.0,38.8,31.6,21.0,0000.0,0012.38,0005.22,0004.34
